| time (UTC) | temp F | wind direction | speed knots | gust knots | rain 1hr in | rain 24hr in | rain mn in | humidity % | barometer mb |
| 20260504081557 | 58 | 355 | 0.0 | 0.0 | 0.00 | 0.00 | 0.00 | 75 | 1009.4 |
| 20260504080516 | 59 | 355 | 0.0 | 0.0 | 0.00 | 0.00 | 0.00 | 74 | 1009.4 |
| 20260504050516 | 67 | 350 | 0.0 | 0.0 | 0.00 | 0.00 | 0.00 | 62 | 1009.5 |
| 20260504045536 | 68 | 350 | 0.0 | 0.0 | 0.00 | 0.00 | 0.00 | 60 | 1009.4 |
| 20260504044516 | 69 | 350 | 0.0 | 0.0 | 0.00 | 0.00 | 0.00 | 57 | 1009.4 |
| 20260504043556 | 69 | 350 | 0.0 | 0.0 | 0.00 | 0.00 | 0.00 | 56 | 1009.4 |
| 20260504042516 | 70 | 350 | 0.0 | 0.0 | 0.00 | 0.00 | 0.00 | 55 | 1009.3 |
| 20260504041536 | 70 | 346 | 0.0 | 0.0 | 0.00 | 0.00 | 0.00 | 55 | 1009.3 |
| 20260504040516 | 71 | 346 | 0.0 | 0.0 | 0.00 | 0.00 | 0.00 | 54 | 1009.2 |
| 20260504035516 | 71 | 345 | 0.0 | 0.0 | 0.00 | 0.00 | 0.00 | 52 | 1009.2 |
| 20260504034516 | 72 | 345 | 0.0 | 0.0 | 0.00 | 0.00 | 0.00 | 52 | 1009.1 |
| 20260504033516 | 72 | 355 | 0.0 | 0.0 | 0.00 | 0.00 | 0.00 | 51 | 1009.1 |
| 20260504032516 | 73 | 342 | 0.0 | 0.0 | 0.00 | 0.00 | 0.00 | 51 | 1009.1 |
| 20260504031516 | 73 | 355 | 0.0 | 0.0 | 0.00 | 0.00 | 0.00 | 50 | 1009.1 |
| 20260504030516 | 74 | 348 | 0.0 | 0.0 | 0.00 | 0.00 | 0.00 | 50 | 1009.1 |
| 20260504025516 | 74 | 333 | 0.0 | 0.0 | 0.00 | 0.00 | 0.00 | 49 | 1009.1 |
| 20260504024516 | 75 | 0 | 0.0 | 0.9 | 0.00 | 0.00 | 0.00 | 49 | 1009.1 |
| 20260504023516 | 75 | 314 | 0.0 | 0.0 | 0.00 | 0.00 | 0.00 | 49 | 1009.1 |
| 20260504022516 | 76 | 330 | 0.0 | 0.0 | 0.00 | 0.00 | 0.00 | 48 | 1009.1 |
| 20260504021516 | 77 | 355 | 0.0 | 0.0 | 0.00 | 0.00 | 0.00 | 48 | 1009.2 |
| 20260504020516 | 77 | 327 | 0.0 | 0.0 | 0.00 | 0.00 | 0.00 | 47 | 1009.3 |
| 20260504015515 | 78 | 334 | 0.0 | 0.0 | 0.00 | 0.00 | 0.00 | 46 | 1009.2 |
| 20260504014516 | 78 | 327 | 0.0 | 0.0 | 0.00 | 0.00 | 0.00 | 46 | 1009.3 |
| 20260504013516 | 78 | 0 | 0.0 | 0.9 | 0.00 | 0.00 | 0.00 | 45 | 1009.3 |
| 20260504012516 | 78 | 315 | 0.0 | 0.9 | 0.00 | 0.00 | 0.00 | 45 | 1009.4 |
| 20260504011516 | 79 | 0 | 0.0 | 0.9 | 0.00 | 0.00 | 0.00 | 44 | 1009.6 |
| 20260504010515 | 79 | 0 | 0.0 | 0.9 | 0.00 | 0.00 | 0.00 | 44 | 1009.5 |
| 20260504005516 | 80 | 338 | 0.0 | 3.5 | 0.00 | 0.00 | 0.00 | 43 | 1009.6 |
| 20260504004516 | 80 | 289 | 0.0 | 0.0 | 0.00 | 0.00 | 0.00 | 44 | 1009.7 |
| 20260504003536 | 81 | 0 | 0.0 | 1.7 | 0.00 | 0.00 | 0.00 | 45 | 1009.7 |
| 20260504002515 | 81 | 338 | 0.0 | 2.6 | 0.00 | 0.00 | 0.00 | 44 | 1009.8 |
| 20260504001515 | 81 | 0 | 0.0 | 1.7 | 0.00 | 0.00 | 0.00 | 44 | 1009.8 |
| 20260504000516 | 81 | 317 | 0.0 | 0.0 | 0.00 | 0.00 | 0.00 | 44 | 1009.8 |
| 20260503235517 | 81 | 315 | 0.0 | 1.7 | 0.00 | 0.00 | 0.00 | 44 | 1009.9 |
| 20260503234516 | 80 | 0 | 0.0 | 0.9 | 0.00 | 0.00 | 0.00 | 46 | 1010.0 |
| 20260503233516 | 80 | 338 | 0.0 | 0.9 | 0.00 | 0.00 | 0.00 | 46 | 1010.2 |
| 20260503232516 | 80 | 338 | 0.0 | 0.9 | 0.00 | 0.00 | 0.00 | 46 | 1010.3 |
| 20260503231516 | 79 | 0 | 0.0 | 0.9 | 0.00 | 0.00 | 0.00 | 47 | 1010.6 |
| 20260503230516 | 79 | 0 | 0.0 | 2.6 | 0.00 | 0.00 | 0.00 | 47 | 1010.6 |
| 20260503225516 | 79 | 0 | 0.0 | 1.7 | 0.00 | 0.00 | 0.00 | 48 | 1010.8 |
| 20260503224516 | 78 | 0 | 0.0 | 0.9 | 0.00 | 0.00 | 0.00 | 48 | 1011.0 |
| 20260503223516 | 78 | 0 | 0.9 | 5.2 | 0.00 | 0.00 | 0.00 | 48 | 1011.1 |
| 20260503222517 | 78 | 0 | 0.9 | 8.7 | 0.00 | 0.00 | 0.00 | 48 | 1011.2 |
| 20260503221516 | 78 | 338 | 0.9 | 3.5 | 0.00 | 0.00 | 0.00 | 48 | 1011.3 |
| 20260503220516 | 78 | 0 | 0.9 | 7.0 | 0.00 | 0.00 | 0.00 | 48 | 1011.4 |
| 20260503215556 | 78 | 0 | 0.9 | 7.0 | 0.00 | 0.00 | 0.00 | 47 | 1011.5 |
| 20260503214516 | 79 | 0 | 0.9 | 5.2 | 0.00 | 0.00 | 0.00 | 48 | 1011.6 |
| 20260503213516 | 79 | 0 | 0.9 | 3.5 | 0.00 | 0.00 | 0.00 | 47 | 1011.6 |
| 20260503212516 | 79 | 0 | 0.0 | 3.5 | 0.00 | 0.00 | 0.00 | 47 | 1011.6 |
| 20260503211516 | 78 | 0 | 0.9 | 5.2 | 0.00 | 0.00 | 0.00 | 48 | 1011.7 |
| 20260503210516 | 78 | 0 | 0.0 | 0.9 | 0.00 | 0.00 | 0.00 | 48 | 1011.8 |
| 20260503205516 | 78 | 333 | 0.0 | 0.0 | 0.00 | 0.00 | 0.00 | 49 | 1012.0 |
| 20260503204516 | 78 | 330 | 0.0 | 0.0 | 0.00 | 0.00 | 0.00 | 49 | 1012.1 |
| 20260503203536 | 77 | 5 | 0.0 | 0.0 | 0.00 | 0.00 | 0.00 | 51 | 1012.2 |
| 20260503202536 | 77 | 0 | 0.0 | 0.9 | 0.00 | 0.00 | 0.00 | 49 | 1012.3 |
| 20260503201516 | 77 | 314 | 0.0 | 0.0 | 0.00 | 0.00 | 0.00 | 50 | 1012.4 |
| 20260503200536 | 77 | 0 | 0.0 | 0.9 | 0.00 | 0.00 | 0.00 | 49 | 1012.6 |
| 20260503195516 | 77 | 315 | 0.0 | 0.9 | 0.00 | 0.00 | 0.00 | 50 | 1012.7 |
| 20260503194516 | 76 | 0 | 0.0 | 0.9 | 0.00 | 0.00 | 0.00 | 51 | 1012.9 |
| 20260503193516 | 76 | 0 | 0.0 | 2.6 | 0.00 | 0.00 | 0.00 | 51 | 1013.0 |
| 20260503192516 | 75 | 0 | 0.0 | 1.7 | 0.00 | 0.00 | 0.00 | 51 | 1013.2 |
| 20260503191516 | 74 | 0 | 0.0 | 1.7 | 0.00 | 0.00 | 0.00 | 53 | 1013.2 |
| 20260503190516 | 74 | 346 | 0.0 | 0.0 | 0.00 | 0.00 | 0.00 | 55 | 1013.4 |
| 20260503185516 | 74 | 0 | 0.0 | 2.6 | 0.00 | 0.00 | 0.00 | 53 | 1013.5 |
| 20260503184516 | 74 | 355 | 0.0 | 0.0 | 0.00 | 0.00 | 0.00 | 55 | 1013.6 |
| 20260503183516 | 73 | 0 | 0.0 | 2.6 | 0.00 | 0.00 | 0.00 | 55 | 1013.7 |
| 20260503182536 | 73 | 315 | 0.0 | 0.9 | 0.00 | 0.00 | 0.00 | 54 | 1013.7 |
| 20260503181516 | 73 | 0 | 0.0 | 3.5 | 0.00 | 0.00 | 0.00 | 53 | 1013.8 |
| 20260503180515 | 72 | 338 | 0.0 | 3.5 | 0.00 | 0.00 | 0.00 | 55 | 1013.8 |
| 20260503175536 | 72 | 0 | 0.0 | 3.5 | 0.00 | 0.00 | 0.00 | 55 | 1013.8 |
| 20260503174515 | 72 | 0 | 0.0 | 1.7 | 0.00 | 0.00 | 0.00 | 56 | 1013.9 |
| 20260503173516 | 71 | 355 | 0.0 | 0.0 | 0.00 | 0.00 | 0.00 | 59 | 1014.0 |
| 20260503172515 | 70 | 9 | 0.0 | 0.0 | 0.00 | 0.00 | 0.00 | 60 | 1014.1 |
| 20260503171515 | 70 | 0 | 0.0 | 0.9 | 0.00 | 0.00 | 0.00 | 62 | 1014.2 |
| 20260503170515 | 69 | 0 | 0.0 | 2.6 | 0.00 | 0.00 | 0.00 | 63 | 1014.2 |
| 20260503150515 | 60 | 5 | 0.0 | 0.0 | 0.00 | 0.00 | 0.00 | 80 | 1014.7 |
| 20260503130517 | 53 | 46 | 0.0 | 0.0 | 0.00 | 0.00 | 0.00 | 88 | 1014.3 |
| 20260503110517 | 54 | 40 | 0.0 | 0.0 | 0.00 | 0.00 | 0.00 | 86 | 1014.5 |